Погода в Кузнечихе

Россия / Ярославская область     57°42′26″N   39°53′53″E
темп.,
°C
ветер,
м/с
пор.,
м/с
влажн.,
%
обл.,
%
осадки,
мм/ч
давл.,
гПа
погр.,
м
2 марта, вт
вт200:00+1з61497100 0.1 1006592
03:00+1з71498100 0.6 1005686
06:00+1зсз7139599 0.2 1003790
09:00+1зсз7129188 0.3 1003902
12:00+1сз71287100 0.1 1003922
15:000сз71389100 0.1 10031100
18:00−1сз6128397 0.1 1004903
21:00−3сз5138682 0.4 1006852
3 марта, ср
ср300:00−7сз5138825 0.0 1008417
03:00−8сз6139145 0.0 1010445
06:00−8сз6129298 0.0 1010431
09:00−8зсз5119092 0.0 1012456
12:00−3зсз6119061 0.0 1010731
15:00−1зсз7109180 0.2 10081018
18:00−2з61292100 0.3 1006757
21:00−3з6139295 0.3 1006775
4 марта, чт
чт400:00−2зюз61296100 0.3 1002625
03:00−2зюз51194100 0.5 999507
06:00−1зюз489899 1.4 995385
09:00−1сз81292100 4.4 994940
12:00−3зсз8128592 0.1 995954
15:00−3сз688696 0.1 997803
18:00−6сз359198 0.0 99888
21:00−8с239486 0.1 100028
5 марта, пт
пт500:00−11ссз239122 0.0 100124
03:00−13ссз239428 0.0 100322
06:00−14ссз22936 0.0 100420
09:00−12сз11897 0.0 100633
12:00−8ю118592 0.0 1007247
15:00−6вюв119296 0.4 1008218
18:00−9з1192100 0.1 100921
21:00−12зсз239177 0.1 101122
6 марта, сб
сб600:00−12сз349682 0.1 101269
03:00−16сз348967 0.1 101366
06:00−17сз369087 0.0 1014112
09:00−17сз469245 0.0 1015236
12:00−13зсз35877 0.0 1015461
15:00−11зсз358436 0.0 1014489
18:00−14зюз23900 0.0 101320
21:00−16юз34930 0.0 101139